[[{"header":{"parameterUnit":"m.s-1","parameterCategory":2,"la1":30.2991,"la2":30.254,"lo1":-89.0895,"lo2":-89.0444,"dy":0.0017,"dx":0.0017,"nx":28,"ny":28,"refTime":"2024-07-24T03:00:00:Z","depth":"0","parameterNumber":2,"parameterNumberName":"U-component_of_CURRENTS"},"data":[0,0,0,0,0,0,0,0,0,0,0,0,0,0,0,0,0,0,0,0,0,0,0,0,0,0,0,0,0,0,0,0,0,0,0,0,0,0,0,0,0,0,0,0,0,0,0,0,0,0,0,0,0,0,0,0,0,0,0.2836,0.2837,0,0.2886,0.2886,0.2887,0.289,0.2889,0.2889,0.2888,0.2903,0.2903,0.2904,0,0,0,0,0,0,0,0,0,0,0,0,0,0.2823,0.2823,0.2836,0.2837,0.2838,0.2886,0.2886,0.2887,0.289,0.2889,0.2889,0.2888,0.2902,0.2903,0.2904,0,0,0,0,0,0,0,0,0,0,0,0,0,0.2844,0.2823,0.2836,0.2847,0.2848,0.2886,0.2886,0.2887,0.289,0.2889,0.2889,0.2888,0.2902,0.2903,0.2904,0.2922,0,0,0.2908,0.2908,0,0,0,0,0,0,0,0,0.2843,0.2844,0.2844,0.2846,0.2848,0.2883,0.2887,0.2898,0.289,0.2872,0.2888,0.2888,0.2895,0.2896,0.2904,0.2923,0.2923,0.2908,0.2908,0.2909,0.2909,0,0,0,0,0,0,0,0.2841,0.2843,0.2854,0.2845,0.2848,0.2876,0.2878,0.2889,0.2883,0.2873,0.2874,0.2883,0.2895,0.2903,0.2905,0.2924,0.2908,0.2909,0.2909,0.291,0.2978,0.298,0,0,0,0,0,0,0.2836,0.2841,0.2852,0.2855,0.2847,0.2877,0.2878,0.287,0.2884,0.2886,0.2884,0.2883,0.2902,0.2903,0.2905,0.2976,0.2909,0.291,0.291,0.2977,0.2979,0.298,0,0,0,0,0,0,0.2835,0.2836,0.285,0.2852,0.2856,0.2877,0.2869,0.2872,0.2886,0.2893,0.2894,0.2895,0.2901,0.2903,0.2921,0.2975,0.291,0.2911,0.2976,0.2978,0.2979,0.3087,0,0,0,0,0,0,0.2834,0.2835,0.2833,0.2851,0.2856,0.2882,0.287,0.2873,0.2893,0.2893,0.2903,0.2903,0.2901,0.2919,0.2922,0.2975,0.2912,0.2974,0.2977,0.2979,0.3082,0.3092,0.3101,0,0,0,0,0,0.2833,0.2834,0.2832,0.2834,0.285,0.2883,0.2888,0.2901,0.2894,0.2909,0.291,0.2903,0.2935,0.2921,0.2924,0.2979,0.2973,0.2976,0.2979,0.3077,0.309,0.31,0,0,0,0,0,0,0.283,0.2835,0.2833,0.2834,0.2861,0.2884,0.2899,0.2907,0.2921,0.2917,0.2915,0.2917,0.2956,0.2942,0.2926,0.3001,0.2955,0.2958,0.3029,0.3041,0.305,0.3086,0.2913,0,0,0,0,0,0.2827,0.2824,0.2844,0.2848,0.2859,0.288,0.2896,0.2906,0.292,0.2926,0.2935,0.2944,0.297,0.2982,0.2994,0.3032,0.3069,0.3067,0.3076,0.3085,0.3114,0.322,0.3244,0.2989,0.2989,0.2989,0,0,0.2827,0.2831,0.2829,0.2847,0.2864,0.2911,0.2887,0.2915,0.2965,0.2925,0.2982,0.2977,0.2985,0.3033,0.305,0.3029,0.3174,0.3088,0.3096,0.3121,0.3226,0.3251,0.3274,0.299,0.299,0.299,0,0,0.2844,0.2829,0.2844,0.2873,0.2905,0.2928,0.2939,0.2968,0.2988,0.3029,0.3027,0.3053,0.3074,0.3111,0.3127,0.3193,0.3219,0.3189,0.3276,0.3378,0.3402,0.3422,0.35,0.3527,0.3197,0.3197,0.3197,0,0.2848,0.2873,0.2859,0.2899,0.2942,0.2942,0.3002,0.3027,0.3062,0.3092,0.3056,0.3126,0.3124,0.322,0.3243,0.3223,0.3275,0.3236,0.3397,0.3418,0.3437,0.3511,0.354,0.3203,0.3202,0.3201,0.3201,0,0.2892,0.2925,0.2941,0.2994,0.3034,0.3081,0.3124,0.3159,0.3171,0.3197,0.3266,0.3263,0.3311,0.3314,0.3302,0.3441,0.3431,0.3399,0.3378,0.3471,0.3541,0.3569,0.321,0.3208,0.3207,0.3205,0,0,0.288,0.2958,0.2967,0.3028,0.3094,0.314,0.3217,0.3298,0.3357,0.3374,0.3452,0.3498,0.3486,0.3505,0.3498,0.3579,0.3751,0.3557,0.356,0.3653,0.3983,0.3846,0.3863,0.3759,0.3764,0.3769,0.3977,0,0.2932,0.303,0.3058,0.3182,0.325,0.3289,0.3369,0.3435,0.3465,0.3528,0.3544,0.3596,0.3565,0.3582,0.3672,0.3724,0.383,0.3697,0.3863,0.3868,0.3752,0.3893,0.3601,0.3751,0.4004,0.4008,0.4012,0,0.2982,0.3047,0.3166,0.3302,0.3333,0.3403,0.3531,0.3595,0.3669,0.3685,0.374,0.3737,0.3853,0.3787,0.3994,0.3916,0.3979,0.4013,0.4021,0.3881,0.3784,0.3697,0.3792,0.3672,0.4054,0.4051,0.4048,0,0.3012,0.3136,0.324,0.3286,0.342,0.3485,0.3549,0.3638,0.3701,0.3773,0.3821,0.3923,0.399,0.409,0.416,0.4102,0.437,0.429,0.4238,0.4227,0.4004,0.3964,0.4016,0.4471,0.447,0.447,0.4469,0,0.3078,0.3173,0.3258,0.3324,0.3448,0.3519,0.3633,0.37,0.3784,0.386,0.39,0.3984,0.408,0.4211,0.4247,0.4342,0.446,0.4301,0.4294,0.4026,0.3988,0.3888,0.3848,0.4478,0.4476,0.4474,0.4473,0,0.3142,0.3183,0.3313,0.3436,0.3468,0.3556,0.367,0.3745,0.3827,0.3927,0.3956,0.4099,0.4232,0.4319,0.4485,0.4463,0.4398,0.4546,0.4208,0.4156,0.3902,0.3877,0.3856,0.3762,0.4502,0.45,0.4498,0,0.3186,0.3259,0.3382,0.3423,0.3483,0.3586,0.3649,0.3743,0.3812,0.3985,0.4042,0.42,0.4257,0.4445,0.4422,0.447,0.4361,0.4243,0.4061,0.3894,0.3865,0.3755,0.3671,0.3818,0.3811,0.3805,0.3801,0,0.3291,0.333,0.3424,0.3479,0.3541,0.3618,0.3708,0.376,0.3866,0.3937,0.4036,0.4086,0.4229,0.4115,0.4185,0.417,0.3974,0.4123,0.4055,0.3436,0.3221,0.312,0.3676,0.375,0.3755,0.3759,0.3761,0.3764,0.3345,0.3415,0.3474,0.352,0.3568,0.3589,0.3589,0.3674,0.3714,0.3731,0.3908,0.386,0.3819,0.3823,0.3817,0.3567,0.3667,0.338,0.3402,0.3339,0.3117,0.355,0.3537,0.354,0.3544,0.3546,0.3549,0,0.3361,0.3418,0.3491,0.3486,0.3458,0.351,0.3565,0.3502,0.3449,0.3516,0.3516,0.3361,0.323,0.3183,0.2994,0.2864,0.2764,0.2774,0.2553,0.254,0.3006,0.2837,0.2541,0.2541,0.2541,0.2541,0.2541,0.2541,0.3356,0.3398,0.3408,0.3311,0.3301,0.3196,0.3171,0.3115,0.3108,0.2932,0.2791,0.2797,0.2788,0.263,0.2414,0.2347,0.2219,0.2059,0.2212,0.2505,0.2562,0.2617,0.2449,0.2076,0.2075,0.1551,0.1547,0.1544]},{"header":{"parameterUnit":"m.s-1","parameterCategory":2,"la1":30.2991,"la2":30.254,"lo1":-89.0895,"lo2":-89.0444,"dy":0.0017,"dx":0.0017,"nx":28,"ny":28,"refTime":"2024-07-24T03:00:00:Z","depth":"0","parameterNumber":3,"parameterNumberName":"V-component_of_CURRENTS"},"data":[0,0,0,0,0,0,0,0,0,0,0,0,0,0,0,0,0,0,0,0,0,0,0,0,0,0,0,0,0,0,0,0,0,0,0,0,0,0,0,0,0,0,0,0,0,0,0,0,0,0,0,0,0,0,0,0,0,0,-0.0345,-0.0345,0,-0.0403,-0.0404,-0.0404,-0.0441,-0.0441,-0.0441,-0.0441,-0.0486,-0.0487,-0.0488,0,0,0,0,0,0,0,0,0,0,0,0,0,-0.03,-0.03,-0.0345,-0.0345,-0.0346,-0.0403,-0.0404,-0.0404,-0.0441,-0.0441,-0.0441,-0.0442,-0.0486,-0.0487,-0.0488,0,0,0,0,0,0,0,0,0,0,0,0,0,-0.0334,-0.0301,-0.0344,-0.0371,-0.0375,-0.0403,-0.0404,-0.0405,-0.0441,-0.0441,-0.0441,-0.0442,-0.0486,-0.0487,-0.0488,-0.049,0,0,-0.0493,-0.0493,0,0,0,0,0,0,0,0,-0.0332,-0.0336,-0.0367,-0.037,-0.0373,-0.0415,-0.0405,-0.0433,-0.044,-0.0415,-0.0441,-0.0442,-0.0461,-0.0465,-0.0474,-0.0492,-0.0494,-0.0493,-0.0494,-0.0494,-0.0495,0,0,0,0,0,0,0,-0.033,-0.0334,-0.0367,-0.0368,-0.0371,-0.0393,-0.0398,-0.041,-0.0435,-0.0417,-0.042,-0.0427,-0.0463,-0.0473,-0.0476,-0.0494,-0.0493,-0.0494,-0.0495,-0.0496,-0.0518,-0.0518,0,0,0,0,0,0,-0.0322,-0.0331,-0.0365,-0.0369,-0.0354,-0.0393,-0.0399,-0.0401,-0.0435,-0.0441,-0.0427,-0.0429,-0.047,-0.0474,-0.0477,-0.0483,-0.0494,-0.0496,-0.0497,-0.0518,-0.0518,-0.0518,0,0,0,0,0,0,-0.032,-0.0324,-0.0363,-0.0352,-0.0359,-0.0393,-0.0396,-0.0402,-0.0412,-0.0443,-0.0448,-0.0431,-0.0471,-0.0475,-0.0486,-0.0485,-0.0496,-0.0498,-0.0519,-0.0518,-0.0518,-0.0493,0,0,0,0,0,0,-0.0319,-0.0323,-0.0321,-0.0351,-0.0359,-0.0372,-0.0396,-0.0403,-0.0416,-0.0419,-0.0448,-0.0452,-0.0471,-0.0484,-0.0488,-0.0487,-0.0499,-0.0519,-0.0518,-0.0518,-0.0494,-0.0492,-0.049,0,0,0,0,0,-0.0317,-0.0308,-0.032,-0.0324,-0.0355,-0.0371,-0.0377,-0.0403,-0.0416,-0.0415,-0.0437,-0.0452,-0.0484,-0.0485,-0.0489,-0.0489,-0.0519,-0.0518,-0.0518,-0.0495,-0.0492,-0.049,0,0,0,0,0,0,-0.0288,-0.0312,-0.0326,-0.0325,-0.0345,-0.0378,-0.0377,-0.0399,-0.0416,-0.0416,-0.0448,-0.0454,-0.0463,-0.0477,-0.0478,-0.0493,-0.0504,-0.0504,-0.0485,-0.0482,-0.048,-0.047,-0.05,0,0,0,0,0,-0.0281,-0.0279,-0.0309,-0.0308,-0.0312,-0.0344,-0.0355,-0.0373,-0.0394,-0.0402,-0.0425,-0.0446,-0.0464,-0.0473,-0.0488,-0.0495,-0.0473,-0.0498,-0.0495,-0.0493,-0.0488,-0.0443,-0.0435,-0.0516,-0.0516,-0.0516,0,0,-0.0272,-0.0283,-0.0284,-0.0301,-0.0315,-0.0325,-0.035,-0.0358,-0.0376,-0.0403,-0.0423,-0.0437,-0.0463,-0.0474,-0.0479,-0.0486,-0.0457,-0.0493,-0.0491,-0.0486,-0.0441,-0.0433,-0.0426,-0.0515,-0.0515,-0.0515,0,0,-0.0246,-0.0257,-0.0246,-0.026,-0.0278,-0.0302,-0.0302,-0.0332,-0.0352,-0.0369,-0.0397,-0.0404,-0.0434,-0.0452,-0.0466,-0.0457,-0.0445,-0.0467,-0.0451,-0.0407,-0.0399,-0.0392,-0.0342,-0.0331,-0.0467,-0.0467,-0.0467,0,-0.0235,-0.0235,-0.0247,-0.0242,-0.0263,-0.0289,-0.0298,-0.0317,-0.0351,-0.0363,-0.0368,-0.0396,-0.0421,-0.0435,-0.0442,-0.0451,-0.0421,-0.046,-0.0402,-0.0395,-0.0388,-0.0339,-0.0327,-0.0466,-0.0466,-0.0466,-0.0467,0,-0.0206,-0.0213,-0.0205,-0.0217,-0.0234,-0.0243,-0.0277,-0.0291,-0.0316,-0.0335,-0.0344,-0.0363,-0.0376,-0.0391,-0.0421,-0.0399,-0.0389,-0.0401,-0.0405,-0.0378,-0.0328,-0.0316,-0.0464,-0.0465,-0.0465,-0.0465,0,0,-0.0175,-0.0186,-0.0185,-0.0203,-0.023,-0.0245,-0.0265,-0.0297,-0.0296,-0.0316,-0.0301,-0.0347,-0.034,-0.0355,-0.0378,-0.0356,-0.0292,-0.0363,-0.0362,-0.0307,-0.0181,-0.0204,-0.0193,-0.0289,-0.0287,-0.0286,-0.016,0,-0.0159,-0.0161,-0.0171,-0.0192,-0.0209,-0.0241,-0.0259,-0.0285,-0.0292,-0.0273,-0.0286,-0.0273,-0.0331,-0.0317,-0.0308,-0.0279,-0.0262,-0.0325,-0.0221,-0.0218,-0.0236,-0.018,-0.0178,-0.0069,-0.0148,-0.0146,-0.0145,0,-0.0135,-0.015,-0.0168,-0.0206,-0.0212,-0.0223,-0.0254,-0.0267,-0.025,-0.0242,-0.0221,-0.0209,-0.0181,-0.0222,-0.0164,-0.0196,-0.0198,-0.0184,-0.0179,-0.0201,-0.0218,-0.0112,-0.0044,-0.0151,-0.0126,-0.0128,-0.0129,0,-0.0138,-0.0151,-0.0177,-0.019,-0.0225,-0.0239,-0.0254,-0.0257,-0.0221,-0.0197,-0.0117,-0.0121,-0.0039,-0.0058,-0.004,-0.009,0.0051,-0.0009,-0.0036,-0.0037,-0.0016,-0.0019,-0.0035,0.0019,0.0019,0.0018,0.0018,0,-0.0142,-0.0166,-0.0176,-0.0197,-0.0204,-0.0235,-0.0209,-0.0224,-0.0151,-0.0036,-0.0082,0.0047,0.0014,0.0089,0.003,0.0065,0.0112,-0.0013,-0.0001,-0.0009,-0.0012,-0.0092,-0.017,0.0023,0.0022,0.0021,0.002,0,-0.0167,-0.0172,-0.0196,-0.0217,-0.0207,-0.0218,-0.0145,-0.0071,-0.0053,0.0119,0.0154,0.0238,0.0326,0.0282,0.031,0.021,0.0145,0.0181,0.0174,0.018,-0.0003,-0.008,-0.0071,-0.0111,0.0165,0.0166,0.0166,0,-0.018,-0.0197,-0.0194,-0.0134,-0.0137,-0.0117,-0.0035,-0.0024,0.0098,0.0267,0.0404,0.0508,0.0635,0.0635,0.0472,0.0372,0.023,0.0259,0.0128,0.0005,-0.007,-0.0129,-0.0168,0.0182,0.0182,0.0182,0.0183,0,-0.0192,-0.019,-0.0184,-0.0063,0.0024,0.0104,0.0215,0.0312,0.0408,0.0561,0.0794,0.0892,0.0879,0.0792,0.0594,0.0487,0.0166,0.0257,0.0149,-0.0045,-0.0123,-0.0161,0.008,0.0185,0.0185,0.0184,0.0184,0.0184,-0.015,-0.0132,-0.005,0.0053,0.0177,0.0347,0.0425,0.0598,0.078,0.1015,0.1089,0.1259,0.1043,0.0779,0.0607,0.0233,0.0212,0.0082,0.0011,-0.0028,-0.0114,0.0121,0.0211,0.0211,0.0211,0.0211,0.0211,0,-0.0025,0.0014,0.0112,0.0254,0.0426,0.0449,0.0645,0.0754,0.0987,0.1218,0.1395,0.1397,0.1122,0.0791,0.0276,0.002,-0.0075,-0.0119,-0.0203,-0.0224,0.002,-0.0032,-0.0014,-0.0013,-0.0013,-0.0013,-0.0013,-0.0013,0.0068,0.0188,0.0215,0.048,0.0591,0.0777,0.0876,0.1033,0.119,0.1436,0.1548,0.16,0.1342,0.0475,-0.0103,-0.0228,-0.039,-0.0425,-0.0502,-0.0361,-0.0348,-0.0336,-0.0404,-0.0463,-0.0464,-0.0711,-0.0714,-0.0716]}],[{"header":{"parameterUnit":"m.s-1","parameterCategory":2,"la1":30.2991,"la2":30.254,"lo1":-89.0895,"lo2":-89.0444,"dy":0.0017,"dx":0.0017,"nx":28,"ny":28,"refTime":"2024-07-24T03:00:00:Z","depth":"2","parameterNumber":2,"parameterNumberName":"U-component_of_CURRENTS"},"data":[0,0,0,0,0,0,0,0,0,0,0,0,0,0,0,0,0,0,0,0,0,0,0,0,0,0,0,0,0,0,0,0,0,0,0,0,0,0,0,0,0,0,0,0,0,0,0,0,0,0,0,0,0,0,0,0,0,0,0.2232,0.2233,0,0.2262,0.2262,0.2262,0.2266,0.2266,0.2267,0.2267,0.2288,0.2288,0.2288,0,0,0,0,0,0,0,0,0,0,0,0,0,0.2177,0.2177,0.2232,0.2233,0.2234,0.2262,0.2262,0.2262,0.2266,0.2266,0.2267,0.2267,0.2288,0.2288,0.2288,0,0,0,0,0,0,0,0,0,0,0,0,0,0.2197,0.2178,0.2232,0.2245,0.2247,0.2262,0.2262,0.2262,0.2266,0.2266,0.2267,0.2267,0.2287,0.2288,0.2288,0.2279,0,0,0.2289,0.2289,0,0,0,0,0,0,0,0,0.2196,0.2198,0.2242,0.2244,0.2247,0.2267,0.2251,0.2269,0.2266,0.2251,0.2267,0.2268,0.2284,0.2285,0.2279,0.228,0.2281,0.2289,0.2289,0.2289,0.2289,0,0,0,0,0,0,0,0.2194,0.2197,0.2237,0.2243,0.2246,0.2249,0.2252,0.2254,0.2259,0.2253,0.2255,0.2269,0.2284,0.2279,0.228,0.2281,0.2289,0.2289,0.2289,0.229,0.2356,0.2358,0,0,0,0,0,0,0.2204,0.2195,0.2236,0.2239,0.223,0.225,0.2253,0.2254,0.2259,0.2262,0.2269,0.2269,0.2278,0.2279,0.2281,0.2352,0.2289,0.229,0.229,0.2355,0.2356,0.2358,0,0,0,0,0,0,0.2203,0.2207,0.2235,0.2224,0.2229,0.2251,0.2252,0.2255,0.2268,0.2272,0.2274,0.2283,0.2279,0.228,0.2309,0.235,0.229,0.229,0.2353,0.2355,0.2357,0.2442,0,0,0,0,0,0,0.22,0.2206,0.2213,0.2224,0.223,0.2265,0.2253,0.2255,0.2279,0.228,0.2285,0.2286,0.2279,0.2308,0.2309,0.2349,0.229,0.2351,0.2354,0.2357,0.2437,0.2447,0.2455,0,0,0,0,0,0.2198,0.2209,0.2213,0.2219,0.2238,0.2266,0.2269,0.2282,0.2279,0.2293,0.23,0.2287,0.2328,0.231,0.231,0.2351,0.2349,0.2353,0.2356,0.2433,0.2445,0.2455,0,0,0,0,0,0,0.2198,0.2211,0.2216,0.2233,0.2259,0.227,0.2287,0.2292,0.2306,0.2311,0.2303,0.2306,0.2346,0.2335,0.2315,0.2379,0.2338,0.2342,0.2396,0.2407,0.2416,0.2482,0.2291,0,0,0,0,0,0.22,0.2207,0.223,0.2247,0.226,0.2274,0.2288,0.2301,0.2316,0.2322,0.2322,0.2332,0.2356,0.2371,0.2378,0.2411,0.244,0.2439,0.2448,0.2456,0.251,0.2567,0.2587,0.237,0.237,0.237,0,0,0.2202,0.2217,0.2219,0.2248,0.2263,0.2297,0.2282,0.2315,0.2349,0.2322,0.2357,0.236,0.2371,0.2412,0.2429,0.2412,0.2531,0.246,0.2467,0.2519,0.2573,0.2595,0.2614,0.2372,0.2372,0.2372,0,0,0.222,0.2227,0.2241,0.2261,0.23,0.2324,0.2339,0.2359,0.2372,0.2411,0.2405,0.2444,0.2456,0.2486,0.2503,0.2567,0.2573,0.2558,0.2666,0.2719,0.2738,0.2755,0.2817,0.284,0.2568,0.2568,0.2568,0,0.2228,0.2257,0.2254,0.228,0.2311,0.234,0.238,0.2401,0.2429,0.2446,0.2437,0.2512,0.2504,0.2596,0.2625,0.2593,0.2629,0.262,0.2734,0.2751,0.2768,0.2827,0.285,0.2572,0.2572,0.2571,0.2571,0,0.2254,0.2288,0.2304,0.2349,0.2373,0.2422,0.2454,0.2466,0.2493,0.2529,0.261,0.2634,0.2689,0.2687,0.2685,0.2802,0.2791,0.2732,0.271,0.2795,0.2851,0.2874,0.2579,0.2577,0.2576,0.2575,0,0,0.2252,0.2314,0.2321,0.2349,0.2422,0.2437,0.2487,0.2551,0.2606,0.2651,0.2742,0.2804,0.2844,0.287,0.2878,0.2944,0.3073,0.2909,0.2909,0.2981,0.3218,0.3045,0.3053,0.3035,0.3039,0.3043,0.321,0,0.2293,0.2341,0.2377,0.2447,0.2477,0.2508,0.2572,0.2618,0.2676,0.2761,0.2829,0.293,0.2909,0.2966,0.3034,0.3061,0.314,0.3036,0.3119,0.3123,0.2966,0.3075,0.2802,0.2914,0.3233,0.3236,0.3239,0,0.2314,0.2346,0.241,0.2493,0.2514,0.2574,0.2654,0.2719,0.2834,0.2885,0.3001,0.306,0.32,0.3157,0.3309,0.3246,0.3267,0.3285,0.3289,0.3126,0.2993,0.2881,0.2944,0.3277,0.3274,0.3271,0.3269,0,0.2288,0.2371,0.2426,0.2448,0.2548,0.2583,0.2657,0.2756,0.2839,0.2989,0.3086,0.3229,0.3328,0.3397,0.343,0.3388,0.3578,0.3495,0.3375,0.3363,0.3149,0.3109,0.3622,0.3622,0.3622,0.3621,0.3621,0,0.2312,0.2349,0.2419,0.2445,0.2527,0.2593,0.272,0.2784,0.2956,0.309,0.3188,0.3311,0.3396,0.349,0.3507,0.352,0.3633,0.3449,0.3408,0.3165,0.3127,0.3446,0.3423,0.3627,0.3626,0.3625,0.3624,0,0.2266,0.2326,0.2378,0.2478,0.2522,0.2567,0.2752,0.2879,0.3012,0.3189,0.3256,0.341,0.35,0.3567,0.3659,0.3595,0.3624,0.3593,0.3306,0.3227,0.3366,0.3346,0.3503,0.3499,0.3495,0.3492,0.3489,0,0.2244,0.2278,0.2368,0.2454,0.252,0.2618,0.2755,0.2889,0.3025,0.3228,0.3337,0.3461,0.3482,0.3558,0.3493,0.3492,0.3575,0.322,0.3071,0.3417,0.3363,0.3348,0.3333,0.2841,0.2833,0.2827,0.2822,0,0.2263,0.2306,0.2385,0.2468,0.2606,0.2698,0.2872,0.2931,0.3107,0.3207,0.3292,0.3299,0.3366,0.3175,0.3162,0.3125,0.3188,0.3085,0.3564,0.2875,0.2795,0.2739,0.2747,0.2766,0.2771,0.2776,0.2779,0.2781,0.2329,0.2363,0.2475,0.2516,0.2664,0.2721,0.2711,0.286,0.2907,0.2925,0.3068,0.2967,0.2975,0.2756,0.2682,0.2645,0.2855,0.2714,0.2734,0.2761,0.2615,0.2528,0.2426,0.2429,0.2433,0.2435,0.2438,0,0.237,0.2442,0.2537,0.257,0.2615,0.2684,0.2773,0.2684,0.259,0.2664,0.2606,0.2341,0.2201,0.2258,0.2099,0.2076,0.2075,0.1993,0.1973,0.203,0.2081,0.19,0.1522,0.1519,0.1517,0.1514,0,0,0.2451,0.2493,0.2454,0.2454,0.2496,0.2439,0.2397,0.2267,0.2229,0.2034,0.1958,0.2034,0.2154,0.1793,0.1751,0.161,0.1808,0.1546,0.2283,0.2315,0.2362,0.2501,0.2287,0,0,0,0,0]},{"header":{"parameterUnit":"m.s-1","parameterCategory":2,"la1":30.2991,"la2":30.254,"lo1":-89.0895,"lo2":-89.0444,"dy":0.0017,"dx":0.0017,"nx":28,"ny":28,"refTime":"2024-07-24T03:00:00:Z","depth":"2","parameterNumber":3,"parameterNumberName":"V-component_of_CURRENTS"},"data":[0,0,0,0,0,0,0,0,0,0,0,0,0,0,0,0,0,0,0,0,0,0,0,0,0,0,0,0,0,0,0,0,0,0,0,0,0,0,0,0,0,0,0,0,0,0,0,0,0,0,0,0,0,0,0,0,0,0,0.0052,0.0052,0,0.002,0.002,0.0019,-0.0011,-0.0012,-0.0012,-0.0012,-0.0045,-0.0045,-0.0046,0,0,0,0,0,0,0,0,0,0,0,0,0,0.008,0.008,0.0053,0.0052,0.0052,0.002,0.002,0.0019,-0.0011,-0.0012,-0.0012,-0.0013,-0.0045,-0.0045,-0.0046,0,0,0,0,0,0,0,0,0,0,0,0,0,0.0061,0.008,0.0053,0.0032,0.003,0.002,0.002,0.0019,-0.0011,-0.0012,-0.0012,-0.0013,-0.0045,-0.0045,-0.0046,-0.0037,0,0,-0.0048,-0.0048,0,0,0,0,0,0,0,0,0.0062,0.006,0.0036,0.0034,0.0031,0.0007,0.0017,0.0,-0.0011,0.0005,-0.0012,-0.0013,-0.0027,-0.003,-0.0033,-0.0038,-0.004,-0.0048,-0.0048,-0.0049,-0.0049,0,0,0,0,0,0,0,0.0063,0.0061,0.004,0.0035,0.0032,0.0022,0.0018,0.0014,-0.0006,0.0004,0.0001,-0.0003,-0.0029,-0.0032,-0.0034,-0.004,-0.0048,-0.0049,-0.0049,-0.0049,-0.006,-0.006,0,0,0,0,0,0,0.0067,0.0062,0.0041,0.0039,0.0044,0.0022,0.0018,0.0016,-0.0006,-0.0011,-0.0002,-0.0004,-0.0031,-0.0033,-0.0035,-0.0035,-0.0049,-0.0049,-0.005,-0.006,-0.006,-0.006,0,0,0,0,0,0,0.0068,0.0066,0.0043,0.0049,0.0046,0.0022,0.002,0.0016,0.0008,-0.0011,-0.0016,-0.0007,-0.0032,-0.0035,-0.0042,-0.0037,-0.005,-0.005,-0.006,-0.006,-0.006,-0.0029,0,0,0,0,0,0,0.0069,0.0066,0.0067,0.005,0.0045,0.0039,0.0021,0.0016,0.0006,0.0003,-0.0016,-0.002,-0.0032,-0.0041,-0.0043,-0.0038,-0.0051,-0.0061,-0.006,-0.006,-0.003,-0.0028,-0.0026,0,0,0,0,0,0.007,0.0074,0.0067,0.0064,0.0047,0.004,0.0037,0.0018,0.0007,0.0008,-0.0009,-0.0019,-0.0041,-0.0041,-0.0043,-0.0038,-0.0061,-0.006,-0.006,-0.0031,-0.0028,-0.0026,0,0,0,0,0,0,0.008,0.007,0.0063,0.0061,0.0052,0.0034,0.0033,0.002,0.0009,0.0005,-0.0015,-0.002,-0.0025,-0.0035,-0.0035,-0.0042,-0.0053,-0.0053,-0.0031,-0.0028,-0.0026,-0.0007,-0.0051,0,0,0,0,0,0.0085,0.0088,0.0074,0.0073,0.007,0.0053,0.0047,0.0036,0.0022,0.0016,0.0003,-0.0012,-0.0024,-0.0029,-0.0039,-0.0039,-0.0036,-0.0039,-0.0037,-0.0035,-0.0021,-0.0001,0.0005,-0.0059,-0.0059,-0.0059,0,0,0.0089,0.0084,0.0085,0.0076,0.0068,0.0074,0.0048,0.0043,0.0052,0.0016,0.0022,-0.0003,-0.0023,-0.0026,-0.0029,-0.0034,-0.0019,-0.0034,-0.0032,-0.002,0.0,0.0007,0.0013,-0.0059,-0.0059,-0.0059,0,0,0.0106,0.0095,0.0107,0.0107,0.0098,0.0087,0.0087,0.0072,0.007,0.0068,0.0044,0.0027,0.0009,-0.0,-0.0009,0.0002,-0.0008,-0.0012,0.0017,0.0036,0.0042,0.0048,0.0045,0.005,-0.001,-0.001,-0.001,0,0.0111,0.0124,0.0109,0.0124,0.0133,0.0096,0.0118,0.0109,0.0094,0.0117,0.0075,0.0058,0.0027,0.0038,0.0022,0.001,0.0009,0.0008,0.0041,0.0047,0.0052,0.0048,0.0053,-0.0008,-0.0008,-0.0009,-0.0009,0,0.0142,0.0153,0.016,0.017,0.0178,0.0185,0.0179,0.0199,0.0182,0.0172,0.0176,0.012,0.0116,0.0088,0.0048,0.0066,0.0048,0.0043,0.0039,0.006,0.0054,0.0059,-0.0006,-0.0007,-0.0007,-0.0007,0,0,0.0153,0.0177,0.0182,0.0224,0.0207,0.0239,0.026,0.0291,0.0346,0.0285,0.033,0.0256,0.0215,0.02,0.0145,0.0133,0.0136,0.0091,0.0091,0.0095,0.0163,0.0115,0.0115,0.0136,0.0137,0.0138,0.0139,0,0.0181,0.0239,0.0234,0.0303,0.0339,0.0345,0.0386,0.0415,0.0412,0.0444,0.0373,0.0365,0.0259,0.0242,0.0213,0.0171,0.0153,0.0136,0.0136,0.0135,0.0097,0.0121,0.013,0.0129,0.0144,0.0144,0.0145,0,0.0218,0.0258,0.0323,0.0424,0.0444,0.0477,0.0587,0.0617,0.0639,0.063,0.0592,0.0523,0.047,0.0374,0.031,0.0302,0.023,0.0181,0.0181,0.0134,0.0098,0.0112,0.0137,0.0153,0.0152,0.0152,0.0151,0,0.0269,0.034,0.0406,0.0428,0.0508,0.0576,0.0627,0.0681,0.0728,0.0733,0.0746,0.0673,0.0641,0.0546,0.0395,0.0364,0.033,0.0293,0.0182,0.0178,0.0185,0.0179,0.0257,0.0257,0.0257,0.0257,0.0257,0,0.0311,0.0385,0.0449,0.0489,0.0626,0.0656,0.0785,0.0834,0.0863,0.093,0.0827,0.0842,0.0682,0.0619,0.0469,0.034,0.0393,0.0197,0.0184,0.0192,0.0186,0.0209,0.0203,0.0257,0.0257,0.0257,0.0257,0,0.0385,0.0391,0.0504,0.0604,0.0646,0.0758,0.0872,0.0949,0.0973,0.1052,0.104,0.0983,0.0906,0.0735,0.0605,0.0458,0.033,0.0266,0.0265,0.0251,0.0142,0.0138,0.0163,0.0161,0.016,0.0159,0.0158,0,0.0433,0.0486,0.0605,0.0653,0.0701,0.0843,0.092,0.0989,0.1057,0.1145,0.1178,0.1122,0.1081,0.0857,0.0607,0.0369,0.033,0.022,0.0155,0.0153,0.0137,0.0135,0.0133,0.0174,0.0173,0.0172,0.0172,0,0.0546,0.0574,0.0661,0.0748,0.0831,0.0964,0.1083,0.1153,0.1246,0.1306,0.1381,0.1355,0.1139,0.0899,0.0567,0.04,0.0254,0.0199,0.0243,0.0183,0.016,0.0145,0.0143,0.0167,0.0167,0.0168,0.0168,0.0168,0.0636,0.0721,0.0777,0.0884,0.0958,0.1072,0.1181,0.1282,0.1411,0.1488,0.1498,0.1444,0.1207,0.0749,0.049,0.0208,0.0215,0.0104,0.0108,0.0112,0.01,0.0074,0.0063,0.0062,0.0062,0.0062,0.0062,0,0.0748,0.0809,0.0894,0.1002,0.1073,0.1104,0.1267,0.1343,0.1484,0.1528,0.1549,0.1306,0.1047,0.0763,0.0341,0.0099,0.0085,0.002,0.0061,0.0068,0.0073,0.0061,0.0012,0.0011,0.001,0.001,0,0,0.0787,0.0904,0.0947,0.1073,0.1127,0.124,0.1328,0.142,0.1478,0.1497,0.145,0.1379,0.1089,0.0777,0.0466,0.0233,0.0198,0.0181,0.0245,0.0336,0.0344,0.0143,0.0134,0,0,0,0,0]}],[{"header":{"parameterUnit":"m.s-1","parameterCategory":2,"la1":30.2991,"la2":30.254,"lo1":-89.0895,"lo2":-89.0444,"dy":0.0017,"dx":0.0017,"nx":28,"ny":28,"refTime":"2024-07-24T03:00:00:Z","depth":"4","parameterNumber":2,"parameterNumberName":"U-component_of_CURRENTS"},"data":[0,0,0,0,0,0,0,0,0,0,0,0,0,0,0,0,0,0,0,0,0,0,0,0,0,0,0,0,0,0,0,0,0,0,0,0,0,0,0,0,0,0,0,0,0,0,0,0,0,0,0,0,0,0,0,0,0,0,0.1138,0.1138,0,0.1154,0.1154,0.1155,0.1162,0.1162,0.1162,0.1162,0.1197,0.1198,0.1199,0,0,0,0,0,0,0,0,0,0,0,0,0,0.1134,0.1134,0.1138,0.1138,0.1138,0.1154,0.1154,0.1155,0.1162,0.1162,0.1162,0.1161,0.1197,0.1198,0.1199,0,0,0,0,0,0,0,0,0,0,0,0,0,0.1144,0.1134,0.1138,0.1142,0.1142,0.1154,0.1154,0.1155,0.1162,0.1162,0.1162,0.1161,0.1196,0.1198,0.12,0.1218,0,0,0.1205,0.1206,0,0,0,0,0,0,0,0,0.1143,0.1144,0.1141,0.1142,0.1142,0.1153,0.1165,0.1176,0.1162,0.1158,0.1162,0.1161,0.1183,0.1186,0.1193,0.122,0.1221,0.1205,0.1206,0.1207,0.1207,0,0,0,0,0,0,0,0.1142,0.1144,0.1147,0.1141,0.1142,0.1149,0.115,0.1168,0.1175,0.1158,0.1158,0.1155,0.1183,0.1191,0.1194,0.1222,0.1205,0.1207,0.1208,0.1208,0.1304,0.1306,0,0,0,0,0,0,0.1134,0.1143,0.1147,0.1148,0.1138,0.1149,0.115,0.1152,0.1174,0.1176,0.1156,0.1156,0.1188,0.1192,0.1195,0.1251,0.1207,0.1209,0.121,0.1303,0.1304,0.1306,0,0,0,0,0,0,0.1134,0.1135,0.1146,0.1143,0.1145,0.1149,0.1151,0.1153,0.1183,0.1171,0.1174,0.1187,0.1188,0.1193,0.1225,0.1251,0.1209,0.1211,0.1301,0.1303,0.1305,0.1342,0,0,0,0,0,0,0.1134,0.1135,0.1151,0.1143,0.1144,0.1161,0.1152,0.1153,0.1179,0.118,0.1199,0.12,0.1188,0.1223,0.1227,0.1253,0.1212,0.1299,0.1302,0.1305,0.1339,0.1345,0.1351,0,0,0,0,0,0.1134,0.1144,0.1151,0.1152,0.116,0.1161,0.1164,0.1167,0.1181,0.1195,0.121,0.1201,0.1243,0.1225,0.123,0.1257,0.1298,0.1301,0.1304,0.1337,0.1344,0.1351,0,0,0,0,0,0,0.1146,0.1145,0.1153,0.1162,0.1168,0.1161,0.1178,0.1187,0.1212,0.1223,0.122,0.1222,0.1262,0.1259,0.124,0.1294,0.127,0.1274,0.1293,0.13,0.1306,0.1279,0.1214,0,0,0,0,0,0.1158,0.117,0.1166,0.1178,0.1184,0.1193,0.1202,0.1205,0.1216,0.1228,0.1243,0.126,0.1278,0.1288,0.1303,0.1334,0.135,0.1356,0.1362,0.1366,0.1349,0.144,0.1453,0.1317,0.1317,0.1317,0,0,0.1163,0.1168,0.1173,0.1183,0.1193,0.119,0.1199,0.1217,0.1224,0.1229,0.1264,0.1287,0.1293,0.1323,0.1341,0.1324,0.141,0.1371,0.1375,0.1354,0.1445,0.1458,0.147,0.1319,0.1319,0.1318,0,0,0.1164,0.119,0.1194,0.12,0.1215,0.1215,0.1227,0.1241,0.1263,0.1292,0.1302,0.1333,0.1367,0.1366,0.137,0.1419,0.1444,0.1446,0.1448,0.1538,0.155,0.1561,0.1582,0.1594,0.1443,0.1443,0.1443,0,0.1178,0.1168,0.1196,0.1197,0.1194,0.1226,0.1217,0.1246,0.1272,0.1291,0.1305,0.1374,0.1374,0.1407,0.1414,0.1429,0.1478,0.1419,0.1546,0.1557,0.1567,0.1587,0.16,0.1445,0.1445,0.1445,0.1445,0,0.1167,0.1165,0.117,0.1176,0.1187,0.1187,0.1213,0.1248,0.1283,0.1304,0.1371,0.1397,0.1431,0.1447,0.1437,0.1513,0.1523,0.155,0.1526,0.1583,0.16,0.1613,0.1449,0.1448,0.1447,0.1447,0,0,0.1169,0.116,0.1163,0.1148,0.1171,0.1171,0.1204,0.1225,0.1269,0.1319,0.1377,0.1401,0.1449,0.1456,0.1486,0.1545,0.1639,0.158,0.1584,0.1594,0.1819,0.1687,0.1687,0.1725,0.1728,0.173,0.1795,0,0.1145,0.1119,0.113,0.1108,0.1087,0.1128,0.1157,0.1197,0.1261,0.1339,0.1391,0.1475,0.1449,0.1513,0.1557,0.1643,0.168,0.1616,0.1766,0.1767,0.164,0.17,0.1739,0.1805,0.1808,0.181,0.1811,0,0.1119,0.1098,0.1069,0.1055,0.1058,0.1075,0.1134,0.1167,0.1279,0.1349,0.1436,0.1514,0.1596,0.1601,0.1724,0.1707,0.1746,0.1794,0.18,0.1666,0.1659,0.1742,0.1835,0.1833,0.1831,0.1829,0.1828,0,0.107,0.1049,0.102,0.1016,0.1025,0.1049,0.1078,0.1175,0.1232,0.14,0.1493,0.1592,0.1702,0.1773,0.184,0.1825,0.1987,0.1979,0.1874,0.1864,0.1946,0.1935,0.2056,0.2056,0.2056,0.2056,0.2055,0,0.1009,0.0978,0.1007,0.0985,0.0997,0.1027,0.1093,0.1157,0.1285,0.1383,0.1517,0.163,0.1772,0.1874,0.1891,0.1913,0.2027,0.1866,0.1883,0.1956,0.1946,0.1954,0.1941,0.2058,0.2057,0.2057,0.2057,0,0.0918,0.0942,0.0916,0.0945,0.097,0.099,0.1091,0.1164,0.1293,0.1442,0.1517,0.1704,0.1847,0.1928,0.2066,0.1985,0.2021,0.1996,0.2041,0.206,0.1812,0.1801,0.187,0.1866,0.1863,0.186,0.1858,0,0.0839,0.0819,0.0886,0.0939,0.0959,0.1011,0.1082,0.1176,0.1252,0.1472,0.154,0.1744,0.1855,0.1922,0.2,0.2016,0.1988,0.1967,0.188,0.1789,0.18,0.1793,0.1787,0.1853,0.1852,0.1851,0.185,0,0.069,0.0759,0.0779,0.0894,0.0985,0.1017,0.11,0.1141,0.1285,0.1421,0.156,0.1648,0.1794,0.1864,0.1902,0.1901,0.1962,0.1931,0.1937,0.1855,0.1769,0.1781,0.1778,0.1839,0.184,0.1841,0.1842,0,0.0633,0.0645,0.0754,0.085,0.0963,0.1005,0.1038,0.1128,0.1191,0.1408,0.1456,0.1657,0.1805,0.1806,0.1836,0.1834,0.1783,0.1697,0.1714,0.1727,0.1645,0.1512,0.1518,0,0,0,0,0,0.0579,0.0615,0.0703,0.0821,0.093,0.0974,0.1059,0.1099,0.1238,0.131,0.1361,0.1491,0.1578,0.1654,0.1619,0.1733,0.1769,0.1678,0.1672,0.1775,0.1788,0.1703,0,0,0,0,0,0,0.0581,0.0629,0.0683,0.0778,0.0849,0.0926,0.0974,0.1055,0.106,0.1223,0.1279,0.139,0.1488,0.1605,0.1599,0.1614,0.1571,0.1768,0.1763,0.1768,0.178,0.179,0.1707,0,0,0,0,0]},{"header":{"parameterUnit":"m.s-1","parameterCategory":2,"la1":30.2991,"la2":30.254,"lo1":-89.0895,"lo2":-89.0444,"dy":0.0017,"dx":0.0017,"nx":28,"ny":28,"refTime":"2024-07-24T03:00:00:Z","depth":"4","parameterNumber":3,"parameterNumberName":"V-component_of_CURRENTS"},"data":[0,0,0,0,0,0,0,0,0,0,0,0,0,0,0,0,0,0,0,0,0,0,0,0,0,0,0,0,0,0,0,0,0,0,0,0,0,0,0,0,0,0,0,0,0,0,0,0,0,0,0,0,0,0,0,0,0,0,0.0204,0.0205,0,0.0204,0.0204,0.0204,0.0196,0.0196,0.0196,0.0196,0.0193,0.0193,0.0193,0,0,0,0,0,0,0,0,0,0,0,0,0,0.0192,0.0192,0.0204,0.0205,0.0205,0.0204,0.0204,0.0204,0.0196,0.0196,0.0196,0.0196,0.0193,0.0193,0.0193,0,0,0,0,0,0,0,0,0,0,0,0,0,0.0194,0.0193,0.0204,0.0202,0.0202,0.0204,0.0204,0.0204,0.0196,0.0196,0.0196,0.0196,0.0193,0.0193,0.0193,0.0194,0,0,0.0193,0.0193,0,0,0,0,0,0,0,0,0.0194,0.0194,0.0202,0.0202,0.0202,0.0201,0.0198,0.0201,0.0196,0.0197,0.0196,0.0196,0.0197,0.0196,0.0194,0.0194,0.0194,0.0193,0.0193,0.0193,0.0193,0,0,0,0,0,0,0,0.0194,0.0194,0.0203,0.0202,0.0202,0.0199,0.0199,0.0199,0.0196,0.0197,0.0197,0.0199,0.0196,0.0194,0.0194,0.0194,0.0193,0.0193,0.0193,0.0193,0.0196,0.0196,0,0,0,0,0,0,0.0197,0.0194,0.0203,0.0203,0.0199,0.0199,0.0199,0.02,0.0196,0.0196,0.0199,0.0199,0.0194,0.0194,0.0194,0.0214,0.0193,0.0193,0.0193,0.0196,0.0196,0.0196,0,0,0,0,0,0,0.0197,0.0198,0.0203,0.02,0.02,0.02,0.0201,0.0201,0.0203,0.0198,0.0197,0.0202,0.0194,0.0194,0.0199,0.0213,0.0193,0.0193,0.0196,0.0196,0.0196,0.0243,0,0,0,0,0,0,0.0197,0.0198,0.0202,0.02,0.0201,0.0209,0.0201,0.0201,0.0205,0.0204,0.0201,0.02,0.0194,0.0199,0.0199,0.0213,0.0192,0.0196,0.0196,0.0196,0.0241,0.0244,0.0247,0,0,0,0,0,0.0196,0.0202,0.0202,0.0203,0.0206,0.021,0.021,0.0208,0.0205,0.0209,0.0206,0.02,0.02,0.0199,0.0199,0.0213,0.0196,0.0196,0.0196,0.024,0.0244,0.0247,0,0,0,0,0,0,0.0196,0.0202,0.0202,0.0208,0.0212,0.0209,0.0213,0.0212,0.0212,0.0214,0.0205,0.0204,0.0211,0.0203,0.0203,0.0213,0.0196,0.0196,0.0229,0.0233,0.0236,0.0264,0.0192,0,0,0,0,0,0.02,0.0206,0.0209,0.0215,0.0218,0.0217,0.0219,0.022,0.0219,0.0219,0.0216,0.0212,0.0211,0.0215,0.021,0.0221,0.0189,0.0227,0.023,0.0233,0.0254,0.0202,0.0203,0.0197,0.0197,0.0197,0,0,0.0201,0.0205,0.0209,0.0216,0.0218,0.0237,0.0217,0.0226,0.0245,0.0219,0.0239,0.0222,0.0214,0.0224,0.0227,0.0222,0.0215,0.0234,0.0236,0.0256,0.0203,0.0203,0.0204,0.0198,0.0198,0.0197,0,0,0.0213,0.0212,0.0226,0.0235,0.0245,0.0249,0.0254,0.0256,0.026,0.0272,0.0258,0.0254,0.0252,0.0253,0.0252,0.027,0.0229,0.0261,0.0309,0.0258,0.0258,0.0258,0.0206,0.0201,0.0268,0.0268,0.0268,0,0.0215,0.0242,0.023,0.0251,0.0272,0.0259,0.0292,0.0292,0.0295,0.0304,0.0285,0.0277,0.027,0.0286,0.0298,0.0281,0.0239,0.0297,0.0262,0.0262,0.0261,0.0207,0.0201,0.0271,0.027,0.027,0.027,0,0.0242,0.0271,0.0281,0.031,0.0324,0.0349,0.0356,0.0366,0.0365,0.0363,0.0365,0.034,0.0338,0.0329,0.0327,0.0325,0.0291,0.0267,0.0255,0.0264,0.0207,0.02,0.0274,0.0273,0.0272,0.0272,0,0,0.0238,0.0293,0.03,0.0338,0.0367,0.0384,0.0416,0.0445,0.0462,0.0444,0.0458,0.0452,0.0422,0.042,0.0396,0.0366,0.0323,0.0326,0.0322,0.0279,0.02,0.0195,0.0186,0.0282,0.0282,0.0281,0.0158,0,0.0274,0.0341,0.0355,0.0427,0.047,0.0479,0.0507,0.0524,0.0521,0.0522,0.049,0.0491,0.0459,0.0456,0.0417,0.0346,0.0308,0.0358,0.0195,0.0191,0.0189,0.0179,0.0279,0.0152,0.0151,0.0149,0.0148,0,0.0308,0.0355,0.0437,0.051,0.0525,0.0563,0.0613,0.0634,0.0627,0.062,0.0601,0.0562,0.0534,0.0493,0.0371,0.0398,0.0316,0.0252,0.0244,0.0226,0.0173,0.0143,0.0135,0.0136,0.0137,0.0138,0.0139,0,0.0342,0.0418,0.0495,0.0521,0.0586,0.0627,0.066,0.0672,0.0693,0.0688,0.069,0.0621,0.0593,0.0479,0.0351,0.0357,0.0192,0.0173,0.0088,0.0086,0.0107,0.0108,0.0087,0.0087,0.0088,0.0088,0.0088,0,0.0394,0.0457,0.0521,0.057,0.064,0.0672,0.0739,0.0749,0.0766,0.0786,0.0744,0.0727,0.0588,0.0476,0.0353,0.0192,0.0181,0.0103,0.0058,0.0126,0.0132,0.01,0.0103,0.0083,0.0084,0.0085,0.0086,0,0.0436,0.0479,0.0565,0.0644,0.0667,0.0719,0.0797,0.0843,0.085,0.0873,0.088,0.0799,0.0663,0.0503,0.0307,0.0204,0.0049,-0.0005,0.0077,0.0037,-0.0023,-0.0016,-0.0104,-0.0105,-0.0106,-0.0107,-0.0107,0,0.0464,0.0519,0.0612,0.0655,0.0703,0.0783,0.0843,0.0882,0.0915,0.0909,0.0909,0.0811,0.0736,0.0447,0.028,0.0034,0.0008,-0.0076,-0.003,-0.0006,-0.0041,-0.0033,-0.0025,-0.0109,-0.0109,-0.0109,-0.011,0,0.0517,0.0553,0.0621,0.0704,0.078,0.085,0.0926,0.0952,0.0986,0.1001,0.0933,0.0813,0.0654,0.0443,0.0252,0.0078,-0.0023,-0.0086,-0.0085,-0.0042,-0.0013,-0.0045,-0.0036,-0.0113,-0.0112,-0.0112,-0.0112,0,0.054,0.059,0.067,0.074,0.0821,0.0879,0.0929,0.0964,0.0987,0.0974,0.0943,0.0801,0.0711,0.0463,0.028,0.0115,0.0087,0.004,0.0034,0.0036,0.0121,0.0181,0.0107,0,0,0,0,0,0.0556,0.0618,0.0697,0.0765,0.0845,0.0881,0.0958,0.0999,0.1029,0.099,0.0964,0.0822,0.0584,0.0473,0.0308,0.026,0.0052,0.0062,-0.0007,-0.0131,-0.0127,-0.0051,0,0,0,0,0,0,0.0565,0.0648,0.0696,0.0762,0.081,0.0889,0.094,0.097,0.0929,0.094,0.0808,0.0773,0.0529,0.0669,0.0299,0.0252,0.0186,-0.0044,-0.0048,-0.0133,-0.013,-0.0127,-0.0047,0,0,0,0,0]}]]